CW0198 Weather Reports


time (UTC)temp
C
wind
direction
speed
KPH
gust
KPH
rain 1hr
cm
rain 24hr
cm
rain mn
cm
humidity
%
barometer
mb
20260510210047 28 309 1.6 11.3 0.00 0.00 0.00 45 1012.8
20260510204521 29 300 1.6 9.7 0.00 0.00 0.00 47 1012.9
20260510203036 30 341 1.6 6.4 0.00 0.00 0.00 44 1013.0
20260510201603 28 115 0.0 4.8 0.00 0.00 0.00 46 1013.0
20260510201502 28 121 0.0 4.8 0.00 0.00 0.00 47 1013.0
20260510200022 28 290 3.2 9.7 0.00 0.00 0.00 49 1013.0
20260510194604 29 319 4.8 12.9 0.00 0.00 0.00 42 1013.0
20260510193010 28 226 3.2 9.7 0.00 0.00 0.00 49 1013.3
20260510191542 28 274 3.2 11.3 0.00 0.00 0.00 48 1013.4
20260510190108 28 259 1.6 6.4 0.00 0.00 0.00 50 1013.7
20260510184528 27 234 6.4 12.9 0.00 0.00 0.00 50 1014.0
20260510183047 27 172 3.2 11.3 0.00 0.00 0.00 50 1013.9
20260510181512 28 20 0.0 4.8 0.00 0.00 0.00 53 1014.0
20260510180046 28 345 4.8 9.7 0.00 0.00 0.00 50 1014.1
20260510174618 27 224 1.6 11.3 0.00 0.00 0.00 55 1014.0
20260510173025 27 293 1.6 8.0 0.00 0.00 0.00 53 1014.1
20260510171616 27 290 4.8 11.3 0.00 0.00 0.00 53 1014.1
20260510170014 27 1 1.6 6.4 0.00 0.00 0.00 58 1014.1
20260510164535 27 221 0.0 6.4 0.00 0.00 0.00 57 1014.2
20260510163109 28 106 0.0 4.8 0.00 0.00 0.00 56 1014.4
20260510161512 27 33 0.0 6.4 0.00 0.00 0.00 58 1014.5
20260510160039 26 314 0.0 8.0 0.00 0.00 0.00 61 1014.5
20260510154600 25 334 3.2 11.3 0.00 0.00 0.00 63 1014.7
20260510153030 25 291 1.6 8.0 0.00 0.00 0.00 68 1014.7
20260510151548 25 294 1.6 9.7 0.00 0.00 0.00 69 1014.6
20260510150017 25 290 1.6 4.8 0.00 0.00 0.00 71 1014.7
20260510144556 24 13 3.2 6.4 0.00 0.00 0.00 73 1014.7
20260510143059 23 265 0.0 4.8 0.00 0.00 0.00 74 1014.5
20260510141526 23 155 0.0 4.8 0.00 0.00 0.00 76 1014.6
20260510140038 22 287 1.6 4.8 0.00 0.00 0.00 77 1014.8
20260510134558 22 41 0.0 6.4 0.00 0.00 0.00 78 1014.6
20260510133018 22 291 1.6 6.4 0.00 0.00 0.00 81 1014.6
20260510131544 21 170 0.0 4.8 0.00 0.00 0.00 84 1014.6
20260510130054 21 163 0.0 6.4 0.00 0.00 0.00 86 1014.2
20260510124518 20 293 0.0 4.8 0.00 0.00 0.00 90 1014.3
20260510123035 18 290 0.0 4.8 0.00 0.00 0.00 92 1014.2
20260510121549 17 303 1.6 4.8 0.00 0.00 0.00 97 1014.2
20260510120003 16 294 0.0 1.6 0.00 0.00 0.00 98 1014.2
20260510114526 16 216 0.0 0.0 0.00 0.00 0.00 98 1013.8
20260510113054 16 215 0.0 0.0 0.00 0.00 0.00 99 1013.6
20260510111512 15 215 0.0 0.0 0.00 0.00 0.00 99 1013.5
20260510110101 15 215 0.0 0.0 0.00 0.00 0.00 99 1013.4
20260510104601 15 215 0.0 0.0 0.00 0.00 0.00 98 1013.2
20260510103023 15 215 0.0 0.0 0.00 0.00 0.00 98 1012.8
20260510101557 15 217 0.0 0.0 0.00 0.00 0.00 99 1012.7
20260510100013 15 210 0.0 0.0 0.00 0.00 0.00 98 1012.6
20260510094540 15 210 0.0 0.0 0.00 0.00 0.00 98 1012.2
20260510093059 15 210 0.0 0.0 0.00 0.00 0.00 99 1012.2
20260510093001 15 210 0.0 0.0 0.00 0.00 0.00 99 1012.2
20260510091517 15 206 0.0 1.6 0.00 0.00 0.00 99 1012.1
20260510090049 15 330 0.0 0.0 0.00 0.00 0.00 98 1011.9
20260510084509 15 330 0.0 0.0 0.00 0.00 0.00 98 1011.7
20260510083038 14 330 0.0 0.0 0.00 0.00 0.00 98 1011.7
20260510081556 14 330 0.0 0.0 0.00 0.00 0.00 98 1011.6
20260510081501 14 330 0.0 0.0 0.00 0.00 0.00 98 1011.5
20260510080036 14 330 0.0 0.0 0.00 0.00 0.00 98 1011.7
20260510074552 14 330 0.0 0.0 0.00 0.00 0.00 98 1011.4
20260510073007 15 330 0.0 0.0 0.00 0.00 0.00 98 1011.5
20260510071530 15 330 0.0 0.0 0.00 0.00 0.00 98 1011.4
20260510070056 15 330 0.0 0.0 0.00 0.00 0.00 98 1011.5
20260510064519 15 330 0.0 0.0 0.00 0.00 0.00 98 1011.5
20260510063047 15 330 0.0 0.0 0.00 0.00 0.00 98 1011.3
20260510061511 15 330 0.0 0.0 0.00 0.00 0.00 98 1011.3
20260510060041 15 330 0.0 0.0 0.00 0.00 0.00 98 1011.4
20260510054501 15 330 0.0 0.0 0.00 0.00 0.00 98 1011.7
20260510053019 15 330 0.0 0.0 0.00 0.00 0.00 98 1011.9
20260510051549 15 330 0.0 0.0 0.00 0.00 0.00 98 1012.0
20260510050108 15 330 0.0 0.0 0.00 0.00 0.00 98 1012.0
20260510050007 15 330 0.0 0.0 0.00 0.00 0.00 98 1011.9
20260510044510 16 330 0.0 0.0 0.00 0.00 0.00 98 1012.0
20260510043037 16 330 0.0 0.0 0.00 0.00 0.00 98 1012.0
20260510041555 16 330 0.0 0.0 0.00 0.00 0.00 98 1011.9
20260510040021 16 330 0.0 0.0 0.00 0.00 0.00 98 1011.9
20260510034553 16 330 0.0 0.0 0.00 0.00 0.00 97 1011.8
20260510033007 16 330 0.0 0.0 0.00 0.00 0.00 97 1011.7
20260510031537 16 330 0.0 0.0 0.00 0.00 0.00 97 1011.6
20260510030100 16 330 0.0 0.0 0.00 0.00 0.00 97 1011.5
20260510024523 16 330 0.0 0.0 0.00 0.00 0.00 96 1011.4
20260510023047 16 330 0.0 0.0 0.00 0.00 0.00 97 1011.4
20260510021536 16 330 0.0 0.0 0.00 0.00 0.00 96 1011.2
20260510020033 16 330 0.0 0.0 0.00 0.00 0.00 96 1011.3
20260510014508 17 330 0.0 0.0 0.00 0.00 0.00 94 1011.1
20260510013025 17 330 0.0 0.0 0.00 0.00 0.00 93 1010.9
20260510011551 17 330 0.0 0.0 0.00 0.00 0.00 93 1010.7
20260510010032 18 330 0.0 0.0 0.00 0.00 0.00 92 1010.6
20260510004544 18 330 0.0 0.0 0.00 0.00 0.00 91 1010.4
20260510003015 19 330 0.0 0.0 0.00 0.00 0.00 89 1010.2
20260510001539 20 330 0.0 0.0 0.00 0.00 0.00 87 1010.4
20260510000006 20 330 0.0 0.0 0.00 0.00 0.00 86 1010.3
20260509234534 21 266 0.0 3.2 0.00 0.00 0.00 84 1010.2
20260509233052 22 233 0.0 0.0 0.00 0.00 0.00 80 1009.7
20260509231518 22 233 0.0 1.6 0.00 0.00 0.00 79 1009.7
20260509230047 22 252 0.0 3.2 0.00 0.00 0.00 77 1009.7
20260509224510 22 241 0.0 0.0 0.00 0.00 0.00 78 1009.4
20260509223040 22 288 0.0 3.2 0.00 0.00 0.00 77 1009.6
20260509221514 22 283 0.0 6.4 0.00 0.00 0.00 79 1009.6
20260509220035 22 266 0.0 6.4 0.00 0.00 0.00 78 1009.6
20260509214546 22 176 1.6 9.7 0.00 0.00 0.00 76 1009.6
20260509213010 22 297 0.0 12.9 0.00 0.00 0.00 77 1009.6
20260509211536 22 228 6.4 16.1 0.00 0.00 0.00 76 1009.4